Location: Brison
(45.7219°N, 5.8901°E)
Time: 18:52:35
(UTC+00:00)

Daily predictions for brighter satellites

Satellite Brightness Start Highest point End
(mag) Time Altitude Azimuth Time Altitude Azimuth Time Altitude Azimuth
BREEZE-M DEB (TANK) 3.7 18:20:01 10° WSW 18:23:12 77° NNW 18:33:13 10° ENE
BREEZE-M DEB (TANK) 4.5 18:10:35 10° W 18:23:48 59° NNW 18:28:31 10° ENE
Cosmos 1371 Rocket 4.1 18:18:50 10° S 18:24:00 56° ESE 18:29:08 10° NNE
Cosmos 1818 3.9 18:19:49 10° NNW 18:25:10 52° NE 18:30:27 10° SE
USA 281 3.3 18:20:04 10° NNE 18:26:40 87° ESE 18:33:15 10° SSW
PAYLOAD B 4.4 18:22:43 10° SSE 18:28:15 83° WSW 18:33:51 10° NNW
Cosmos 1727 Rocket 4.0 18:22:06 10° S 18:28:24 73° E 18:34:40 10° NNE
Cosmos 1626 2.3 18:25:29 10° N 18:28:56 45° ENE 18:32:22 10° SSE
CENTAUR R/B 3.5 18:23:02 10° NW 18:30:56 55° NE 18:39:45 10° ESE
USA 306 3.4 18:27:22 10° WNW 18:31:00 47° SW 18:34:37 10° SSE
Cosmos 2056 Rocket 3.4 18:27:28 10° S 18:32:31 63° ESE 18:37:34 10° NNE
MINOTAUR 4 R/B 4.2 18:29:13 10° NNE 18:32:32 45° E 18:35:48 10° S
COSMO-SKYMED 1 4.4 18:28:35 10° N 18:32:36 37° WNW 18:36:36 10° SW
Cosmos 1263 4.4 18:29:49 10° S 18:33:29 61° E 18:36:36 10° NNE
SL-8 R/B 3.9 18:32:27 10° WNW 18:37:14 73° SSW 18:41:52 11° ESE
Okean 3 3.4 18:39:11 10° N 18:43:23 67° E 18:47:35 10° SSE
Okean 1-7 3.0 18:40:11 10° N 18:44:34 68° E 18:48:52 10° SSE
Cosmos 1933 Rocket 3.5 18:40:58 10° S 18:45:13 58° E 18:49:29 10° NNE
Cosmos 1624 Rocket 4.0 18:40:37 10° SSW 18:45:54 81° ESE 18:51:16 10° NNE
Cosmos 2098 Rocket 4.1 18:42:16 10° SSE 18:47:08 43° E 18:53:00 10° NNE
Iridium 4 Rocket 3.8 18:43:54 10° NNE 18:47:35 29° E 18:51:13 10° SE
CSL-04 Rocket 4.1 18:43:24 10° SE 18:48:39 45° ENE 18:53:55 10° N
SPOT 1/Viking Rocket 4.5 18:46:57 12° ESE 18:50:51 29° ENE 18:55:16 10° N
Exosat Rocket 3.7 18:46:26 10° SSW 18:51:29 78° ESE 18:57:51 10° NNE
Cosmos 2322 Rocket 4.3 18:46:41 10° NW 18:51:31 29° WSW 18:56:22 10° SSW
In-Cosmos 22 4.2 18:45:56 10° N 18:51:36 88° E 18:57:21 10° S
Landsat 7 4.0 18:48:03 10° SE 18:52:36 51° ENE 18:57:11 10° N
Cosmos 1420 Rocket 4.0 18:47:52 10° SSW 18:53:06 88° ESE 18:58:20 10° NNE
KORONAS-FOTON 3.7 18:49:53 10° N 18:53:42 83° E 18:57:31 10° S
Cosmos 1842 4.4 18:50:08 10° NNW 18:53:49 46° W 18:57:27 10° SSW
CZ-3 Stage 3 4.2 18:52:33 10° S 18:53:51 12° SSE 18:55:08 11° SE
Cosmos 2237 Rocket 3.3 18:49:19 10° N 18:54:08 28° NE 18:57:25 16° E
Cosmos 1869 Rocket 4.0 18:50:44 10° SSE 18:54:42 37° E 18:58:43 10° NNE
GEOS 3 Rocket 4.0 18:49:32 10° NE 18:54:56 72° NW 19:00:17 10° SW
Meteor 1-21 4.2 18:51:10 10° N 18:56:47 73° ENE 19:02:25 10° SSE
Cosmos 1459 Rocket 3.9 18:50:57 10° N 18:57:02 79° E 19:03:07 10° SSE
CZ-4C R/B 4.4 18:53:57 10° NNW 18:58:36 20° NNE 19:03:54 10° ENE
USA 305 3.8 18:56:58 10° WNW 19:00:31 38° SW 19:03:56 11° SSE
Cosmos 1725 Rocket 4.0 18:58:22 10° N 19:04:28 57° ENE 19:10:32 10° SSE
USA 307 4.0 19:01:11 10° WNW 19:04:39 33° SW 19:07:59 11° SSE
Resurs 01 Rocket 2.6 19:03:03 20° ESE 19:05:00 28° ENE 19:08:46 10° N
CZ-4B R/B 4.0 19:00:56 10° S 19:06:30 57° W 19:12:05 10° NNW
Lacrosse 5 rocket 2.8 19:04:45 10° S 19:07:27 19° SE 19:07:27 19° SE
Cosmos 2322 3.8 19:03:07 10° NNW 19:08:49 83° WSW 19:14:27 10° SSE
Cosmos 1975 2.7 19:05:08 10° S 19:09:04 85° E 19:13:04 10° N
Landsat 5 4.2 19:06:35 10° NE 19:09:54 27° E 19:10:35 25° ESE
Cosmos 1452 Rocket 3.8 19:05:20 10° S 19:10:15 43° ESE 19:15:14 10° NE
SJ-6B 2.8 19:07:10 10° SSE 19:11:07 86° WSW 19:15:00 10° NNW
Cosmos 1707 3.6 19:08:01 10° NNW 19:11:43 49° W 19:15:21 10° S
Cosmos 676 Rocket 4.2 19:06:47 10° NNW 19:12:00 75° WSW 19:17:14 10° SSE
Cosmos 1805 3.5 19:09:14 10° SSE 19:12:51 43° E 19:16:30 10° NNE
Cosmos 1980 4.3 19:10:06 10° NNW 19:15:27 40° NE 19:18:13 24° ESE
Cosmos 2333 Rocket 3.6 19:10:56 10° NW 19:16:16 39° WSW 19:21:32 10° S
USA 215 4.3 19:10:18 10° NE 19:16:20 41° NNW 19:22:21 10° W
Cosmos 2219 Rocket 2.9 19:12:58 10° NW 19:18:31 55° WSW 19:24:02 10° S
Cosmos 1802 Rocket 4.0 19:12:42 10° N 19:18:59 90° W 19:25:20 10° S
ISS -2.2 19:16:41 10° WNW 19:19:43 31° N 19:21:37 18° NE
SL-27 R/B 3.5 19:16:54 10° SW 19:20:05 44° WNW 19:23:14 10° N
IRS-1C Rocket 4.2 19:16:25 18° SE 19:20:08 53° ENE 19:25:16 10° N
IGS 5A 4.4 19:16:29 10° S 19:20:27 48° W 19:24:29 10° NNW
Cosmos 1703 Rocket 4.2 19:16:43 10° NNW 19:21:06 59° W 19:25:26 10° S
Cosmos 1674 3.8 19:19:15 10° NNW 19:22:48 45° W 19:26:21 10° SSW
CSL-04 Debris 4.2 19:18:45 10° SSE 19:24:09 85° WSW 19:29:38 10° NNW
Resurs 1-3 3.6 19:20:50 10° SSE 19:25:12 86° WSW 19:29:36 10° NNW
EXPRESS MD2 4.1 19:24:26 10° W 19:26:06 19° SW 19:26:19 19° SSW
Cosmos 1741 Rocket 4.1 19:21:48 10° NNW 19:26:58 57° ENE 19:29:30 29° SE
SL-14 R/B 3.2 19:23:35 10° N 19:27:23 57° ENE 19:28:35 37° SE
COSMOS 2428 2.8 19:21:51 10° NNW 19:27:36 77° WSW 19:32:32 14° SSE
USA 186 2.5 19:26:43 13° S 19:29:20 50° W 19:32:22 10° NNW
BREEZE M DEB (TANK) 2.8 19:29:23 10° W 19:31:41 36° N 19:31:58 34° NNE
Okean-O 2.5 19:29:27 20° SSE 19:32:27 82° ENE 19:36:54 10° NNW
Cosmos 2297 Rocket 2.5 19:29:47 10° S 19:35:03 42° ESE 19:40:20 10° NE
Cosmos 2016 Rocket 4.0 19:28:56 10° N 19:35:03 82° W 19:41:10 10° S
Cosmos 968 Rocket 4.3 19:31:50 10° N 19:36:28 32° ENE 19:37:18 30° ENE
Cosmos 2123 Rocket 4.1 19:30:23 10° S 19:36:40 82° W 19:43:03 10° N
Cosmos 1733 Rocket 3.7 19:38:38 35° ENE 19:38:38 35° ENE 19:41:55 10° NNE
Cosmos 1726 1.8 19:35:28 13° S 19:38:33 90° NE 19:42:04 10° N
CZ-4 R/B 3.7 19:35:59 10° SSW 19:39:01 22° W 19:42:07 10° NW
Okean O Rocket 3.5 19:38:49 10° SSW 19:42:41 29° W 19:46:33 10° NW
CARTOSAT-1 4.0 19:43:22 41° ENE 19:43:26 42° ENE 19:47:29 10° N
Cosmos 2221 Rocket 4.3 19:39:37 10° N 19:43:18 34° ENE 19:43:18 34° ENE
NOSS 0 Rocket 3.9 19:38:51 10° NNW 19:45:05 88° WSW 19:48:33 28° SSE
Cosmos 2242 Rocket 4.2 19:41:40 10° NNW 19:46:10 58° W 19:50:25 11° S
Ariane Rocket 3.8 19:47:24 32° ENE 19:47:34 33° ENE 19:52:03 10° N
Cosmos 1378 Rocket 4.5 19:44:57 10° N 19:48:15 32° NE 19:48:15 32° NE
Cosmos 1447 Rocket 4.5 19:45:26 17° SSE 19:50:11 58° E 19:56:14 10° NNE
Cosmos 2227 Rocket 3.7 19:53:55 19° NE 19:53:55 19° NE 19:55:47 10° NE
IRS-P2 Rocket 4.5 19:50:28 39° SSE 19:52:25 73° ENE 19:57:38 10° N
Cosmos 1733 4.2 19:49:06 10° SSW 19:52:44 46° WNW 19:56:23 10° N
Cosmos 1867 3.4 19:49:48 10° SSW 19:55:13 79° ESE 20:00:42 10° NE
Okean 2 4.2 19:56:31 10° NNW 20:00:27 50° W 20:02:24 26° SSW
SPOT 3 Rocket 4.4 20:03:14 33° ENE 20:03:14 33° ENE 20:07:31 10° N
SL-16 R/B 3.1 19:57:52 10° N 20:02:54 31° NE 20:03:15 31° ENE
NOSS 3-2 (A) 4.5 20:00:59 10° NW 20:08:29 61° WSW 20:13:45 25° SSE
H-2A R/B 3.4 20:18:42 41° NNE 20:18:42 41° NNE 20:21:53 10° N
NOSS 3-2 (C) 4.1 20:10:51 10° NW 20:18:25 84° SW 20:21:41 43° SSE
CENTAUR R/B 3.9 20:13:51 10° NW 20:21:53 51° WSW 20:27:29 23° S
Cosmos 1513 Rocket 4.4 20:16:21 10° N 20:22:23 61° ENE 20:22:34 61° E
SJ 16-02 3.6 20:21:27 10° N 20:22:49 15° NNE 20:22:49 15° NNE
Meteor 1-15 Rocket 4.3 20:31:01 65° ENE 20:31:01 65° ENE 20:36:16 10° NNE
USA 238 DEB 3.8 20:24:31 10° NW 20:31:54 85° SW 20:33:45 57° SSE
USA 238 3.8 20:24:37 10° NW 20:32:00 86° SW 20:33:50 57° SSE
Meteor 2-15 4.4 20:29:01 10° N 20:35:00 69° ENE 20:35:00 69° ENE
Meteor 2-8 Rocket 4.5 20:30:25 10° N 20:36:08 63° ENE 20:36:08 63° ENE
Terra 3.3 20:40:22 28° NNE 20:40:22 28° NNE 20:42:54 10° N
Cosmos 2237 Rocket 2.6 20:33:00 10° NW 20:38:31 55° WSW 20:39:16 51° SW
Meteor 1-12 Rocket 4.2 20:39:36 79° NNE 20:39:36 79° NNE 20:45:00 10° NNE
Resurs 01 Rocket 3.1 20:40:34 29° WSW 20:41:23 31° W 20:45:21 10° NNW
Cosmos 2034 Rocket 4.5 20:36:18 10° N 20:41:13 45° NE 20:41:13 45° NE
Lacrosse 5 rocket 3.9 20:42:10 10° WSW 20:42:54 15° WSW 20:42:54 15° WSW
ATLAS CENTAUR R/B 4.4 20:32:32 10° WSW 20:48:08 68° NW 20:54:48 13° NE
CZ-4C R/B 3.4 20:42:10 10° NNW 20:48:52 46° NE 20:49:46 44° ENE
MetOp-B 4.4 20:50:59 62° W 20:50:59 62° W 20:56:13 10° NNW
SPOT 5 3.9 20:53:49 40° NNW 20:53:49 40° NNW 20:56:54 10° NNW
ISS -0.5 20:54:00 10° NW 20:54:34 14° NW 20:54:34 14° NW
Meteor 1-24 Rocket 4.0 20:51:15 10° N 20:56:26 69° N 20:56:26 69° N
Cosmos 1072 Rocket 4.5 20:51:36 10° N 20:57:57 82° W 20:57:57 82° W
FALCON 9 R/B 3.8 20:43:30 10° W 20:58:39 39° SSW 20:58:48 39° SSW
ADEOS Rocket 3.2 21:05:22 71° NNE 21:05:22 71° NNE 21:11:37 10° NNW
Cosmos 2297 Rocket 3.7 21:14:04 10° WSW 21:19:10 34° NW 21:24:20 10° NNE
Meteor 2-5 Rocket 4.5 21:14:45 10° NNW 21:19:35 51° WNW 21:19:35 51° WNW
ERS-1 Rocket 4.4 21:25:22 34° NW 21:25:22 34° NW 21:28:19 10° NNW
Cosmos 2227 Rocket 3.4 21:35:33 38° NNW 21:35:33 38° NNW 21:40:02 10° NNE
SL-16 R/B 3.7 21:41:46 10° NW 21:45:08 33° WNW 21:45:08 33° WNW
SJ 16-02 4.4 21:59:12 10° NNW 21:59:43 13° NNW 21:59:43 13° NNW
ATLAS 3B R/B 4.0 21:57:05 10° NNW 22:03:35 36° NNE 22:03:35 36° NNE
CZ-4C R/B 4.0 22:30:32 10° NW 22:34:56 39° WNW 22:34:56 39° WNW
USA 215 4.5 22:42:40 37° NNW 22:42:40 37° NNW 22:46:48 10° NW
ATLAS 2AS CENTAUR R/B 4.4 23:13:02 27° NNE 23:13:02 27° NNE 23:15:59 10° NE
Cosmos 2344 4.4 23:22:30 10° NW 23:28:51 57° NW 23:28:51 57° NW
